Regional Weather Roundup
Issued by NWS

Home | Current Version | Previous Version | Graphics & Text | Print | Product List | Glossary On
Versions: 1 2 3 4 5 6 7 8 9 10 11 12 13 14 15 16 17 18 19 20 21 22 23 24 25 26 27 28 29 30 31 32 33 34 35 36 37 38 39 40 41 42 43 44 45 46 47 48 49 50
000
ASUS43 KFSD 040302
RWRSD

WEATHER ROUNDUP FOR SOUTH DAKOTA
NATIONAL WEATHER SERVICE SIOUX FALLS SD
1000 PM CDT MON AUG 03 2015

NOTE: "FAIR" INDICATES FEW OR NO CLOUDS BELOW 12,000 FEET WITH NO
SIGNIFICANT WEATHER AND/OR OBSTRUCTIONS TO VISIBILITY.


SDZ001>005-009-010-012>017-040400-
NORTHWEST AND NORTH CENTRAL SOUTH DAKOTA

CITY           SKY/WX    TMP DP  RH WIND       PRES   REMARKS
BUFFALO          N/A     72  53  51 E9        29.91S
FAITH            N/A     74  50  42 SE10      29.97R
MOBRIDGE       CLEAR     72  53  51 E8        29.94R
$$

SDZ012>016-024>037-041>051-057-063-072>074-040400-
SOUTHWEST AND SOUTH CENTRAL SOUTH DAKOTA

CITY           SKY/WX    TMP DP  RH WIND       PRES   REMARKS
RAPID CTY ARPT MOCLDY    72  58  61 E10       29.97R
PIERRE         PTCLDY    70  57  63 E6        29.93S
CUSTER         CLOUDY    67  57  70 E10       30.11R
ELLSWORTH AFB  MOCLDY    74  59  60 E10       29.97R
PHILIP         MOCLDY    72  61  68 E8        29.95R
PINE RIDGE     MOCLDY    75  57  53 E14       29.94R
WINNER         FAIR      73  59  61 SE7       29.96R
$$

SDZ004>011-016>023-039-040-040400-
NORTHEAST SOUTH DAKOTA

CITY           SKY/WX    TMP DP  RH WIND       PRES   REMARKS
ABERDEEN       CLEAR     65  56  72 E3        29.96R
WATERTOWN      CLEAR     67  51  56 CALM      29.99R
BROOKINGS      CLEAR     66  54  63 N3        30.01R
SISSETON         N/A     60  54  80 CALM      29.96R
$$

SDZ017-020-022-023-036>040-048>070-040400-
SOUTHEAST SOUTH DAKOTA

CITY           SKY/WX    TMP DP  RH WIND       PRES   REMARKS
SIOUX FALLS    PTCLDY    67  59  75 N5        29.97R
HURON          CLEAR     70  58  65 E6        29.96R
CHAMBERLAIN    PTCLDY    69  59  71 E5        29.96R
MITCHELL       PTCLDY    68  59  73 E5        29.97R
YANKTON        PTCLDY    70  63  78 E6        29.96R
$$

ABBREVIATIONS USED IN REMARKS
   TC - TEMPERATURE IN CELSIUS
  WCI - WIND CHILL INDEX
   HX - HEAT INDEX
  VSB - VISIBILITY



USA.gov is the U.S. government's official web portal to all federal, state and local government web resources and services.